Location: Asheville, NC
(35.6000°N, 82.5500°W)
Time: 03:59:56
(UTC-04:00)

Vanguard 1 Rocket - Pass Details

Date: 13 December 2017
Orbit: 652 x 4225 km, 34.3° (Epoch: 16 July)

Event Time Altitude Azimuth Distance (km) Brightness Sun altitude
Exits shadow 02:30:29 12° 185° (S) 6,612 11.6 -60.0°
Drops below altitude 10° 02:31:35 10° 182° (S) 6,691 11.6 -59.8°
Sets 02:37:45 0° 170° (S) 7,239 12.0 -58.6°
